Regional Weather Roundup
Issued by NWS

Home | Current Version | Previous Version | Text Only | Print | Product List | Glossary On
Versions: 1 2 3 4 5 6 7 8 9 10 11 12 13 14 15 16 17 18 19 20 21 22 23 24 25 26 27 28 29 30 31 32 33 34 35 36 37 38 39 40 41 42 43 44 45 46
000
ASUS45 KBOU 201607
RWRCO

WEATHER ROUNDUP FOR COLORADO
NATIONAL WEATHER SERVICE DENVER/BOULDER CO
1000 AM MDT SAT SEP 20 2014

NOTE: "FAIR" INDICATES FEW OR NO CLOUDS BELOW 12000 FEET WITH NO
SIGNIFICANT WEATHER AND/OR OBSTRUCTIONS TO VISIBILITY.

COZ001>005-013-030-031-201700-
...NORTHWEST COLORADO...

CITY           SKY/WX    TMP DP  RH WIND       PRES   REMARKS
CRAIG          SUNNY     60  45  57 CALM      30.34R
HAYDEN         SUNNY     61  39  44 E3        30.34S
MEEKER         NOT AVBL
MOUNT WERNER   NOT AVBL
STEAMBOAT SPGS SUNNY     57  44  62 SE3       30.36R
WALDEN         SUNNY     54  37  54 CALM      30.43R
$$

COZ006>008-011-201700-
...WEST CENTRAL VALLEYS...

CITY           SKY/WX    TMP DP  RH WIND       PRES   REMARKS
GRAND JUNCTION SUNNY     73  45  36 S9        30.18R
MONTROSE       SUNNY     68  45  43 CALM      30.25S
EAGLE          SUNNY     57  45  62 CALM      30.37S
RIFLE          SUNNY     67  44  43 NE5       30.26R
DELTA          SUNNY     70  44  39 CALM      30.22S HAZE
NUCLA          SUNNY     66  43  42 CALM      30.26R
$$

COZ017>023-064>068-201700-
...SOUTHWEST COLORADO...

CITY           SKY/WX    TMP DP  RH WIND       PRES   REMARKS
DURANGO        SUNNY     69  43  38 VRB3      30.27R
CORTEZ         SUNNY     70  48  45 E5        30.22R
PAGOSA SPRINGS SUNNY     67  39  36 CALM      30.35R THUNDER
TELLURIDE      NOT AVBL
WOLF CREEK PAS SUNNY     54  34  47 NE14      30.64R
$$

COZ009-010-012-014-032>034-037-058>063-201700-
...CENTRAL COLORADO...

CITY           SKY/WX    TMP DP  RH WIND       PRES   REMARKS
ASPEN          SUNNY     64  43  46 CALM      30.38R
BUENA VISTA    SUNNY     65  38  37 NW5       30.40S
COPPER MTN     SUNNY     54  34  47 W6        30.68R
BERTHOUD PASS  FAIR      45  43  93 NW12      30.71S
COTTONWOOD PAS SUNNY     64  34  32 E3        30.53R
GUNNISON       SUNNY     55  39  54 CALM      30.42S
KREMMLING      SUNNY     55  37  50 CALM      30.41S
LEADVILLE      SUNNY     57  36  45 CALM      30.52R
MONARCH PASS   SUNNY     52  36  54 E13       30.76R
SALIDA         SUNNY     63  40  43 CALM      30.45S
SUNLIGHT       SUNNY     55  37  50 NE3       30.60R
WILKERSON PASS NOT AVBL
$$

COZ069>075-201700-
...SAN LUIS VALLEY/SANGRE DE CRISTO MOUNTAINS...

CITY           SKY/WX    TMP DP  RH WIND       PRES   REMARKS
ALAMOSA        SUNNY     66  40  38 CALM      30.35S
LA VETA PASS   SUNNY     64  34  32 NE13      30.53R
SAGUACHE       NOT AVBL
$$

COZ035-036-038>040-201700-
...NORTHERN COLORADO FRONT RANGE...

CITY           SKY/WX    TMP DP  RH WIND       PRES   REMARKS
DENVER INTL AP SUNNY     64  49  57 CALM      30.28R
DMNS CITY PARK   N/A     65  49  54 NW6       30.28R
AURORA         MOSUNNY   63  49  61 NW6       30.30R
FRONT RANGE AP NOT AVBL
ERIE MUNI ARPT SUNNY     67  47  48 N3        30.27S
BOULDER MUN AP SUNNY     66  46  48 N6        30.28S
CENTENNIAL     MOSUNNY   63  49  60 NW7       30.30R
BROOMFIELD     SUNNY     66  46  48 N6        30.30R
FORT COLLINS   SUNNY     66  46  48 NE7       30.27S
LONGMONT       SUNNY     71  48  42 N3        30.28S
$$

COZ041-046-047-076>085-087-088-201700-
...PIKES PEAK/PALMER DIVIDE AND SOUTHERN FOOTHILLS...

CITY           SKY/WX    TMP DP  RH WIND       PRES   REMARKS
COLO. SPRINGS  MOSUNNY   77  44  30 N18       30.27R
A. F. ACADEMY  SUNNY     69  44  40 N16       30.30R
ELLICOTT       NOT AVBL
FALCON         SUNNY     70  44  38 N15       30.32R
FORT CARSON    SUNNY     78  45  31 N8        30.24R
LIMON          SUNNY     68  51  54 NE12      30.25R
MONUMENT HILL  SUNNY     63  46  55 NW10      30.35R
TRINIDAD       SUNNY     73  44  35 VRB3      30.23R
$$

COZ042>045-048>051-090-091-201700-
...NORTHEAST COLORADO...

CITY           SKY/WX    TMP DP  RH WIND       PRES   REMARKS
GREELEY ARPT     N/A    N/A N/A N/A MISG        N/A
AKRON          SUNNY     69  48  47 NE14      30.20R
BURLINGTON     SUNNY     71  53  52 NE16G22   30.14R
WRAY           SUNNY     74  47  37 NE14G22   30.14S
STERLING       SUNNY     73  52  46 NE10G16   30.17S
HOLYOKE        SUNNY     75  48  38 NE9       30.16R
FORT MORGAN    SUNNY     71  46  41 E10       30.22R
$$

COZ086-089-092>099-201700-
...SOUTHEAST COLORADO...

CITY           SKY/WX    TMP DP  RH WIND       PRES   REMARKS
PUEBLO         SUNNY     77  47  34 SW3       30.17R
LA JUNTA       SUNNY     77  54  44 NE7       30.15R
LAMAR          SUNNY     78  54  43 N16       30.08R
SPRINGFIELD      N/A     77  59  53 N18G28    30.11R
$$



USA.gov is the U.S. government's official web portal to all federal, state and local government web resources and services.